Regional Weather Roundup
Issued by NWS

Home | Current Version | Previous Version | Graphics & Text | Print | Product List | Glossary On
Versions: 1 2 3 4 5 6 7 8 9 10 11 12 13 14 15 16 17 18 19 20 21 22 23 24 25 26 27 28 29 30 31 32 33 34 35 36 37 38 39 40 41 42 43 44 45 46 47 48 49 50
662
ASUS43 KIND 112309
RWRIN

WEATHER ROUNDUP FOR INDIANA
NATIONAL WEATHER SERVICE INDIANAPOLIS IN
600 PM EST THU FEB 11 2016

NOTE: "FAIR" INDICATES FEW OR NO CLOUDS BELOW 12,000 FEET WITH NO
SIGNIFICANT WEATHER AND/OR OBSTRUCTIONS TO VISIBILITY.

* - STATION DOES NOT REPORT WEATHER SUCH AS PRECIPITATION OR FOG.

+ - STATION NOT QUALITY CONTROLLED BY THE NATIONAL WEATHER SERVICE.
    USE DATA WITH CAUTION...ESPECIALLY DEWPOINT AND RELATIVE
    HUMIDITY OBSERVATIONS.

INZ001>003-010>013-019-020-120000-
NORTHWEST INDIANA

CITY           SKY/WX    TMP DP  RH WIND       PRES   REMARKS
GARY /AIRPORT/ CLEAR     23   5  46 CALM      30.30S
KNOX *+        CLEAR     19   9  63 N5        30.29S WCI  13
LA PORTE +     CLEAR     19   7  61 W5        30.29S WCI  12
MICHIGAN CITY+ CLEAR     18   5  57 NW3       30.30S
MONTICELLO +   CLEAR     21  -2  35 W5        30.29S WCI  15
RENSSELAER +   CLEAR     23  -4  30 W6        30.29S WCI  16
VALPARAISO     CLEAR     18   7  62 E5        30.29R WCI  11

$$

LMZ046-743>745-120000-
SOUTHERN LAKE MICHIGAN

STATION/POSITION TIME  TEMP    WIND        PRES    WAVE
                       AIR SEA DIR/SP/G            HT
                 (UTC) (F)     (DEG/KT/KT) (MB)    (FT)
BURNS HARBOR     2200   19      CALM  /  4 1026.4S
MICHIGAN CITY    2200   19     250/  7/  9   N/A

$$

INZ004-005-014>016-021>024-120000-
NORTH CENTRAL INDIANA

CITY           SKY/WX    TMP DP  RH WIND       PRES   REMARKS
ELKHART        CLOUDY    19   9  63 W7        30.27S WCI  10
GOSHEN         MOCLDY    19   6  57 W5        30.26R WCI  12
LOGANSPORT +   CLEAR     21   1  42 W6        30.30R WCI  14
PERU/GRISSOM   PTCLDY    21   7  55 W6        30.27R WCI  13
ROCHESTER +    MOCLDY    23   5  46 NW6       30.28S WCI  16
SOUTH BEND     CLEAR     15   6  67 W6        30.28R WCI   6
WARSAW +       CLOUDY    21   9  58 NW6       30.27S WCI  14

$$

INZ006>009-017-018-025>027-120000-
NORTHEAST INDIANA

CITY           SKY/WX    TMP DP  RH WIND       PRES   REMARKS
ANGOLA *+      CLOUDY    19  10  68 CALM      30.23R
AUBURN +       CLOUDY    21  10  63 W6        30.26S WCI  14
FORT WAYNE     MOCLDY    21  10  62 W10       30.28R WCI  10
HUNTINGTON +   CLOUDY    20   4  50 W5        30.27S WCI  13

$$

INZ028-029-035-036-043>045-051>053-120000-
WEST CENTRAL INDIANA

CITY           SKY/WX    TMP DP  RH WIND       PRES   REMARKS
GREENCASTLE +  CLEAR     23  -2  33 CALM      30.30R
LAFAYETTE      CLEAR     21   5  50 NW3       30.30S
TERRE HAUTE    CLOUDY    25   6  44 CALM      30.31S

$$

INZ030>032-037>040-046>048-054>057-064-065-120000-
CENTRAL INDIANA

CITY           SKY/WX    TMP DP  RH WIND       PRES   REMARKS
COLUMBUS       CLEAR     21   9  58 E5        30.32  WCI  15
FISHERS *+     CLEAR     21  10  63 NW3       30.29S
FRANKFORT +    CLEAR     24  -5  28 W6        30.29S WCI  16
GREENWOOD *+   CLEAR     23  10  58 S8        30.29R WCI  14
INDIANAPOLIS   PTCLDY    22   6  50 NW5       30.28R WCI  16
-EAGLE CREEK   CLEAR     23   6  48 NW6       30.28S WCI  16
KOKOMO *+      PTCLDY    21   7  53 W3        30.28S
MARION +       CLEAR     20   0  40 NW3       30.29R
MT COMFORT *+  CLEAR     23   9  54 CALM      30.28S
SHELBYVILLE    CLEAR     23   8  52 SW7       30.29R WCI  15
ZIONSVILLE +   PTCLDY    22   7  51 W5        30.28S WCI  16

$$

INZ033-034-041-042-049-050-058-059-120000-
EAST CENTRAL INDIANA

CITY           SKY/WX    TMP DP  RH WIND       PRES   REMARKS
MUNCIE         PTCLDY    20   5  52 NW6       30.28S WCI  12

$$

INZ060-061-067>069-081>083-085>088-120000-
SOUTHWEST INDIANA

CITY           SKY/WX    TMP DP  RH WIND       PRES   REMARKS
EVANSVILLE     PTCLDY    31  10  41 N6        30.32R WCI  25
HUNTINGBURG *+ CLEAR     28   9  43 NW6       30.31R WCI  22
WASHINGTON +   CLEAR     27  12  53 NE5       30.31R WCI  21

$$

INZ062-063-066-070>080-084-089>092-120000-
SOUTH CENTRAL AND SOUTHEAST INDIANA

CITY           SKY/WX    TMP DP  RH WIND       PRES   REMARKS
BEDFORD +      CLEAR     27   7  43 N3        30.29S
BLOOMINGTON    CLEAR     25   4  40 NE5       30.29R WCI  19
MADISON *+     CLEAR     27   5  39 CALM      30.31S
NORTH VERNON + CLEAR     23   7  50 CALM      30.31R
SEYMOUR +      CLEAR     27  10  50 NE7       30.31S WCI  19

$$





USA.gov is the U.S. government's official web portal to all federal, state and local government web resources and services.